[[{"header":{"parameterUnit":"m.s-1","parameterCategory":1,"la1":30.2991,"la2":30.254,"lo1":-89.0895,"lo2":-89.0444,"dy":0.0017,"dx":0.0017,"nx":28,"ny":28,"refTime":"2025-01-03T03:00:00:Z","depth":0,"parameterNumber":2,"parameterNumberName":"U-component_of_WINDS"},"data":[0,0,0,0,0,0,0,0,0,0,0,0,0,0,0,0,0,0,0,0,0,0,0,0,0,0,0,0,0,0,0,0,0,0,0,0,0,0,0,0,0,0,0,0,0,0,0,0,0,0,0,0,0,0,0,0,0,0,-1.4846,-1.4846,0,-1.4827,-1.4826,-1.4826,-1.4728,-1.4726,-1.4723,-1.4721,-1.4705,-1.4706,-1.4708,0,0,0,0,0,0,0,0,0,0,0,0,0,-1.4801,-1.4803,-1.4846,-1.4846,-1.4846,-1.4827,-1.4826,-1.4826,-1.4729,-1.4726,-1.4723,-1.472,-1.4704,-1.4706,-1.4708,0,0,0,0,0,0,0,0,0,0,0,0,0,-1.4806,-1.4803,-1.4846,-1.4795,-1.479,-1.4827,-1.4826,-1.4826,-1.4729,-1.4726,-1.4722,-1.4719,-1.4704,-1.4706,-1.4709,-1.4795,0,0,-1.4717,-1.4718,0,0,0,0,0,0,0,0,-1.4805,-1.4807,-1.4802,-1.4798,-1.4793,-1.4776,-1.4804,-1.4816,-1.473,-1.4752,-1.4721,-1.4717,-1.4732,-1.4732,-1.4736,-1.4794,-1.4793,-1.4717,-1.4718,-1.4719,-1.472,0,0,0,0,0,0,0,-1.4805,-1.4808,-1.4838,-1.4802,-1.4797,-1.4773,-1.477,-1.4806,-1.4762,-1.475,-1.4743,-1.4742,-1.4728,-1.4734,-1.4735,-1.4793,-1.4717,-1.4719,-1.4721,-1.4722,-1.4921,-1.4924,0,0,0,0,0,0,-1.4812,-1.4808,-1.4839,-1.4838,-1.479,-1.4777,-1.4773,-1.4785,-1.4761,-1.4754,-1.4745,-1.4737,-1.4731,-1.4732,-1.4734,-1.4833,-1.4719,-1.4722,-1.4723,-1.4917,-1.4922,-1.4926,0,0,0,0,0,0,-1.4811,-1.4816,-1.484,-1.4821,-1.4822,-1.4781,-1.4796,-1.4787,-1.4792,-1.4757,-1.4749,-1.4758,-1.4728,-1.473,-1.478,-1.4831,-1.4723,-1.4725,-1.4913,-1.4918,-1.4924,-1.5032,0,0,0,0,0,0,-1.481,-1.4816,-1.4848,-1.4822,-1.4824,-1.4886,-1.4799,-1.4789,-1.4796,-1.4786,-1.4767,-1.4761,-1.4725,-1.4777,-1.4783,-1.4832,-1.4727,-1.4908,-1.4915,-1.4922,-1.5024,-1.504,-1.5055,0,0,0,0,0,-1.4809,-1.488,-1.485,-1.4854,-1.4862,-1.4889,-1.489,-1.4846,-1.48,-1.4832,-1.481,-1.4762,-1.4824,-1.4783,-1.4788,-1.484,-1.4904,-1.4913,-1.4921,-1.5017,-1.5037,-1.5055,0,0,0,0,0,0,-1.4913,-1.4875,-1.4842,-1.4906,-1.4901,-1.4872,-1.4911,-1.487,-1.4879,-1.4869,-1.4816,-1.4813,-1.4871,-1.486,-1.4814,-1.4922,-1.4856,-1.4866,-1.4927,-1.4946,-1.4961,-1.4963,-1.473,0,0,0,0,0,-1.4943,-1.4967,-1.4933,-1.4994,-1.4993,-1.4953,-1.4963,-1.493,-1.4923,-1.4921,-1.4902,-1.4899,-1.4917,-1.4931,-1.4946,-1.5022,-1.5016,-1.506,-1.5075,-1.5088,-1.5098,-1.5137,-1.5156,-1.4953,-1.4953,-1.4953,0,0,-1.5007,-1.4989,-1.5007,-1.5014,-1.5006,-1.5033,-1.4952,-1.4984,-1.5003,-1.4926,-1.4972,-1.4958,-1.4951,-1.5014,-1.504,-1.5007,-1.5153,-1.5099,-1.511,-1.5112,-1.5147,-1.5167,-1.5184,-1.4959,-1.4958,-1.4957,0,0,-1.5135,-1.5124,-1.5173,-1.5166,-1.5156,-1.5128,-1.514,-1.5118,-1.5105,-1.515,-1.5092,-1.5116,-1.5149,-1.5146,-1.5149,-1.5276,-1.5232,-1.5283,-1.5365,-1.5403,-1.5419,-1.5433,-1.5478,-1.5495,-1.5292,-1.5292,-1.5292,0,-1.5215,-1.5252,-1.5203,-1.5239,-1.5243,-1.5173,-1.5223,-1.5219,-1.5215,-1.522,-1.5182,-1.5222,-1.5212,-1.5273,-1.5304,-1.5309,-1.5321,-1.5284,-1.542,-1.5434,-1.5446,-1.5489,-1.5506,-1.5298,-1.5298,-1.5297,-1.5297,0,-1.5351,-1.5378,-1.5419,-1.5415,-1.5424,-1.5466,-1.5424,-1.544,-1.5406,-1.5383,-1.543,-1.5416,-1.5427,-1.5439,-1.5407,-1.5496,-1.5475,-1.543,-1.5362,-1.5473,-1.5512,-1.5528,-1.5307,-1.5305,-1.5303,-1.5302,0,0,-1.5545,-1.5513,-1.5529,-1.5526,-1.5509,-1.5529,-1.5568,-1.5578,-1.5592,-1.5592,-1.5624,-1.5653,-1.5611,-1.5614,-1.5581,-1.5615,-1.5717,-1.5565,-1.5564,-1.5594,-1.5814,-1.5848,-1.5868,-1.5687,-1.569,-1.5693,-1.5815,0,-1.5668,-1.5732,-1.5689,-1.5761,-1.5785,-1.5719,-1.5753,-1.5747,-1.5727,-1.5745,-1.5723,-1.5745,-1.5688,-1.5689,-1.572,-1.5698,-1.576,-1.5689,-1.5717,-1.5719,-1.5721,-1.5888,-1.5925,-1.6041,-1.583,-1.5832,-1.5834,0,-1.582,-1.5825,-1.5898,-1.5876,-1.5884,-1.5916,-1.5921,-1.5939,-1.5931,-1.5914,-1.5918,-1.5876,-1.5913,-1.5847,-1.5899,-1.5851,-1.5861,-1.5852,-1.5855,-1.5856,-1.5783,-1.5894,-1.6077,-1.6094,-1.5858,-1.5856,-1.5854,0,-1.5954,-1.5979,-1.6026,-1.6026,-1.6001,-1.6024,-1.6015,-1.6003,-1.6012,-1.6017,-1.6022,-1.6032,-1.6038,-1.6047,-1.6009,-1.5964,-1.6066,-1.5996,-1.6053,-1.6054,-1.6078,-1.6077,-1.6264,-1.6084,-1.6084,-1.6083,-1.6083,0,-1.6096,-1.6144,-1.6086,-1.6115,-1.6167,-1.6117,-1.617,-1.6154,-1.6144,-1.6169,-1.6113,-1.6139,-1.6087,-1.6108,-1.6078,-1.6126,-1.6129,-1.6117,-1.6108,-1.6122,-1.6123,-1.6127,-1.6118,-1.6088,-1.6087,-1.6086,-1.6085,0,-1.6255,-1.6218,-1.6265,-1.6236,-1.6231,-1.627,-1.6246,-1.6273,-1.6248,-1.6281,-1.6286,-1.6249,-1.627,-1.6233,-1.625,-1.623,-1.6296,-1.6276,-1.6299,-1.6293,-1.6352,-1.6347,-1.6549,-1.6573,-1.6377,-1.6379,-1.6381,0,-1.6348,-1.6382,-1.6358,-1.637,-1.6364,-1.6385,-1.6393,-1.6345,-1.6356,-1.6349,-1.6377,-1.6393,-1.6403,-1.644,-1.6415,-1.6427,-1.6407,-1.6476,-1.6408,-1.6421,-1.6408,-1.6406,-1.641,-1.6491,-1.6493,-1.6495,-1.6496,0,-1.6517,-1.6496,-1.6509,-1.6516,-1.6527,-1.653,-1.653,-1.6543,-1.6493,-1.6509,-1.6528,-1.6537,-1.6553,-1.657,-1.6576,-1.6568,-1.6525,-1.6518,-1.6532,-1.6546,-1.6558,-1.6552,-1.6337,-1.6514,-1.6512,-1.6511,-1.651,-1.6509,-1.6645,-1.6673,-1.666,-1.6676,-1.667,-1.6671,-1.6694,-1.6672,-1.6688,-1.6697,-1.6668,-1.6695,-1.6686,-1.669,-1.6686,-1.6707,-1.6676,-1.6696,-1.6701,-1.6707,-1.6716,-1.6555,-1.6708,-1.6707,-1.6707,-1.6706,-1.6706,0,-1.6811,-1.6799,-1.6815,-1.6815,-1.6828,-1.6784,-1.6781,-1.6796,-1.682,-1.6814,-1.6825,-1.6848,-1.6864,-1.6841,-1.6853,-1.6874,-1.6855,-1.6879,-1.6877,-1.6876,-1.6743,-1.673,-1.6895,-1.6894,-1.6894,-1.6894,-1.6894,-1.6894,-1.6899,-1.6944,-1.6922,-1.6964,-1.6951,-1.6976,-1.6978,-1.6979,-1.6974,-1.7002,-1.7015,-1.6999,-1.6986,-1.6996,-1.701,-1.7002,-1.7009,-1.7041,-1.7027,-1.6904,-1.6885,-1.6868,-1.6855,-1.7043,-1.7043,-1.7157,-1.7159,-1.7159]},{"header":{"parameterUnit":"m.s-1","parameterCategory":1,"la1":30.2991,"la2":30.254,"lo1":-89.0895,"lo2":-89.0444,"dy":0.0017,"dx":0.0017,"nx":28,"ny":28,"refTime":"2025-01-03T03:00:00:Z","depth":0,"parameterNumber":3,"parameterNumberName":"V-component_of_WINDS"},"data":[0,0,0,0,0,0,0,0,0,0,0,0,0,0,0,0,0,0,0,0,0,0,0,0,0,0,0,0,0,0,0,0,0,0,0,0,0,0,0,0,0,0,0,0,0,0,0,0,0,0,0,0,0,0,0,0,0,0,0.3613,0.3613,0,0.361,0.361,0.361,0.3646,0.3647,0.3648,0.3649,0.3643,0.3642,0.3641,0,0,0,0,0,0,0,0,0,0,0,0,0,0.3646,0.3645,0.3613,0.3613,0.3613,0.361,0.361,0.361,0.3646,0.3647,0.3648,0.3649,0.3643,0.3642,0.3641,0,0,0,0,0,0,0,0,0,0,0,0,0,0.3636,0.3645,0.3613,0.363,0.3632,0.361,0.361,0.361,0.3645,0.3647,0.3648,0.365,0.3644,0.3642,0.3641,0.3602,0,0,0.3636,0.3635,0,0,0,0,0,0,0,0,0.3637,0.3635,0.3628,0.3629,0.3631,0.363,0.362,0.3607,0.3645,0.364,0.3649,0.365,0.3637,0.3636,0.3633,0.3601,0.3601,0.3636,0.3635,0.3634,0.3634,0,0,0,0,0,0,0,0.3637,0.3635,0.3612,0.3628,0.3629,0.3637,0.3638,0.3618,0.363,0.3641,0.3643,0.3643,0.3638,0.3634,0.3633,0.3601,0.3636,0.3634,0.3633,0.3633,0.3539,0.3537,0,0,0,0,0,0,0.3636,0.3636,0.3612,0.3612,0.3637,0.3636,0.3636,0.3629,0.3631,0.3633,0.3641,0.3644,0.3636,0.3634,0.3633,0.3587,0.3634,0.3633,0.3632,0.354,0.3538,0.3537,0,0,0,0,0,0,0.3637,0.3634,0.3612,0.3624,0.3622,0.3634,0.3625,0.3628,0.3624,0.3631,0.3634,0.3635,0.3637,0.3635,0.361,0.3588,0.3632,0.363,0.3542,0.3539,0.3537,0.3496,0,0,0,0,0,0,0.3637,0.3634,0.3619,0.3624,0.3622,0.3589,0.3624,0.3627,0.3621,0.3625,0.3626,0.3627,0.3638,0.3612,0.3608,0.3586,0.3629,0.3544,0.3541,0.3538,0.35,0.3493,0.3487,0,0,0,0,0,0.3638,0.3607,0.3618,0.3615,0.3604,0.3588,0.3587,0.3601,0.3619,0.3605,0.361,0.3627,0.3591,0.3609,0.3605,0.3582,0.3545,0.3542,0.3538,0.3503,0.3494,0.3487,0,0,0,0,0,0,0.3598,0.3608,0.362,0.359,0.3588,0.3594,0.3576,0.3591,0.3583,0.3587,0.3604,0.3604,0.3576,0.3577,0.3596,0.3545,0.3571,0.3567,0.3545,0.3538,0.3532,0.3531,0.3628,0,0,0,0,0,0.3586,0.3573,0.3582,0.3554,0.3552,0.3564,0.3558,0.3569,0.3567,0.3566,0.357,0.3567,0.3555,0.3546,0.3536,0.3501,0.3501,0.3483,0.3477,0.3472,0.3467,0.3449,0.3441,0.3525,0.3525,0.3525,0,0,0.3559,0.3563,0.3554,0.3546,0.3546,0.3531,0.3563,0.3546,0.3536,0.3564,0.354,0.3543,0.354,0.351,0.3497,0.351,0.3445,0.3467,0.3463,0.3462,0.3445,0.3437,0.343,0.3523,0.3523,0.3524,0,0,0.3505,0.3506,0.3484,0.3483,0.3484,0.3492,0.3487,0.3491,0.3494,0.3471,0.3492,0.3479,0.3458,0.3456,0.3452,0.3398,0.3414,0.3394,0.3361,0.3343,0.3336,0.333,0.3311,0.3304,0.339,0.339,0.339,0,0.3472,0.3452,0.347,0.3452,0.3448,0.3474,0.3451,0.3449,0.3445,0.3441,0.3457,0.3432,0.3432,0.3402,0.3389,0.3385,0.3379,0.3393,0.3336,0.333,0.3325,0.3307,0.33,0.3387,0.3388,0.3388,0.3388,0,0.3412,0.3398,0.3379,0.3376,0.337,0.3349,0.3363,0.3355,0.3367,0.3374,0.335,0.3352,0.3342,0.3336,0.3347,0.3308,0.3316,0.3333,0.336,0.3315,0.3298,0.3291,0.3384,0.3385,0.3386,0.3386,0,0,0.3329,0.3338,0.3331,0.333,0.3333,0.3322,0.3303,0.3295,0.3288,0.3284,0.3268,0.3251,0.3268,0.3263,0.3274,0.3259,0.3216,0.3278,0.3278,0.3266,0.3172,0.3159,0.315,0.3227,0.3226,0.3225,0.3172,0,0.3276,0.3245,0.3261,0.3227,0.3214,0.324,0.3223,0.3223,0.3229,0.3218,0.3225,0.3212,0.3235,0.3233,0.3219,0.3224,0.3197,0.3228,0.3211,0.321,0.321,0.3141,0.3127,0.3077,0.3166,0.3165,0.3164,0,0.3209,0.3205,0.317,0.3177,0.3172,0.3156,0.3151,0.3141,0.3141,0.3147,0.3143,0.3158,0.3139,0.3166,0.3141,0.3161,0.3156,0.3157,0.3156,0.3154,0.3184,0.3137,0.3062,0.3054,0.3154,0.3155,0.3155,0,0.3152,0.3138,0.3116,0.3114,0.3121,0.311,0.3112,0.3114,0.3108,0.3103,0.31,0.3092,0.3088,0.3082,0.3094,0.3113,0.3067,0.3095,0.307,0.307,0.3058,0.3058,0.298,0.3055,0.3056,0.3056,0.3056,0,0.3091,0.3068,0.309,0.3076,0.3052,0.3071,0.3046,0.3051,0.3053,0.304,0.3061,0.3049,0.3067,0.3056,0.3065,0.3042,0.304,0.3044,0.3046,0.3041,0.3041,0.3037,0.304,0.3054,0.3054,0.3055,0.3055,0,0.3023,0.3037,0.3014,0.3023,0.3025,0.3006,0.3014,0.3001,0.301,0.2993,0.299,0.3003,0.2991,0.3003,0.2992,0.2999,0.2968,0.2976,0.2968,0.297,0.2944,0.2946,0.286,0.285,0.2932,0.2932,0.2931,0,0.2982,0.2965,0.2973,0.2967,0.2968,0.2957,0.2952,0.2971,0.2964,0.2964,0.2951,0.2942,0.2935,0.2915,0.2922,0.2914,0.2922,0.2892,0.292,0.2916,0.2921,0.2921,0.2919,0.2886,0.2885,0.2884,0.2883,0,0.2908,0.2916,0.2909,0.2904,0.2898,0.2894,0.2893,0.2886,0.2905,0.2897,0.2886,0.2881,0.287,0.286,0.2854,0.2856,0.2872,0.2875,0.2869,0.2863,0.2858,0.286,0.2951,0.2876,0.2877,0.2877,0.2878,0.2878,0.2852,0.2839,0.2843,0.2834,0.2835,0.2833,0.2822,0.283,0.2821,0.2815,0.2826,0.2812,0.2814,0.2808,0.2808,0.2797,0.2809,0.28,0.2797,0.2795,0.2791,0.2861,0.2796,0.2796,0.2796,0.2796,0.2796,0,0.2779,0.2783,0.2775,0.2773,0.2766,0.2784,0.2783,0.2776,0.2764,0.2765,0.2758,0.2746,0.2736,0.2744,0.2736,0.2726,0.2733,0.2723,0.2724,0.2724,0.278,0.2786,0.2717,0.2717,0.2717,0.2717,0.2717,0.2717,0.274,0.2719,0.2727,0.2707,0.2712,0.2699,0.2697,0.2696,0.2696,0.2682,0.2675,0.2681,0.2684,0.2677,0.2669,0.2672,0.2668,0.2655,0.266,0.2712,0.272,0.2727,0.2733,0.2654,0.2654,0.2604,0.2603,0.2603]}]]